Cloud_Cover
0 0 8 12 12 44 76 80 76 68 68 76 68 64 68 80 92 92 92 92 92 92 92 92 92 92 92 92 92 92 88 80 88 88 80 76 64 64 56 56 44 36 32 24 24 20 20 8 8 8 8 8 8 12 12 8 8 8 0 0 12 20 24 32 48 56 56 68 68
8 20 32 48 64 80 92 80 68 64 68 76 80 88 88 92 92 92 92 92 92 92 92 88 88 88 88 88 92 92 92 88 88 88 88 80 80 76 68 56 48 36 24 20 20 20 12 8 0 0 0 0 0 8 12 20 24 24 24 24 36 36 36 44 56 56 64 68 64
44 64 68 92 88 80 76 64 56 64 76 76 88 92 92 92 92 92 92 92 92 92 92 88 88 88 88 88 88 88 88 92 92 88 88 88 80 76 64 48 32 24 20 12 12 8 0 0 0 0 0 0 0 12 32 56 56 56 48 48 44 48 48 64 64 64 64 68 64
88 92 92 92 88 76 64 56 64 68 80 92 92 92 92 92 92 92 92 88 88 88 88 88 88 88 88 88 88 88 88 88 80 80 76 68 64 48 44 44 36 32 24 12 8 0 0 0 8 8 0 0 20 24 32 44 48 48 48 44 48 48 56 64 68 68 64 64 64
92 92 92 88 68 64 64 76 80 88 92 92 92 92 92 92 88 88 88 88 88 88 88 88 88 88 80 76 68 76 76 76 76 68 64 64 56 56 56 48 44 36 32 12 8 8 8 32 32 32 24 32 36 36 44 44 48 48 48 48 48 48 48 48 56 64 64 56 64
92 92 92 92 92 92 92 92 92 92 92 92 92 92 92 92 88 88 88 88 88 88 92 92 80 80 76 64 64 68 80 80 76 68 64 56 56 48 48 44 36 32 32 20 20 32 44 44 44 36 36 44 44 44 44 44 48 44 44 44 48 48 48 44 56 64 56 56 56
92 92 92 92 92 92 92 92 92 92 92 92 92 92 92 92 88 88 88 88 92 92 92 92 88 80 76 76 76 76 76 80 76 68 68 64 56 48 36 32 24 24 24 24 36 44 44 44 44 44 44 44 44 44 44 44 44 44 36 44 48 48 48 44 48 48 56 48 48
56 80 92 92 92 92 92 92 92 92 92 92 92 92 92 88 88 88 92 92 92 92 92 88 92 88 80 80 76 76 68 64 76 76 68 64 64 48 44 44 44 44 44 44 48 48 44 36 36 36 36 36 44 44 44 44 44 36 36 44 44 48 48 48 48 48 48 44 44
8 32 64 80 88 92 92 92 92 92 92 92 92 92 92 92 92 92 92 92 92 88 88 88 88 80 76 76 68 68 68 64 56 48 48 56 56 56 56 64 64 64 56 56 56 48 44 44 36 32 32 32 24 32 32 36 36 32 32 32 36 36 44 44 44 44 36 32 32
8 8 0 0 36 64 80 92 92 92 92 92 92 92 92 92 92 92 88 88 88 88 80 80 80 76 68 68 68 64 64 56 48 48 48 64 64 64 64 64 64 68 64 56 56 56 48 44 44 36 32 24 24 24 20 20 12 12 12 12 20 24 32 32 36 32 24 20 20
8 0 0 8 32 56 68 80 76 68 76 80 80 88 88 88 88 88 88 88 88 80 80 80 76 68 68 64 56 56 48 56 64 56 56 64 64 64 64 64 64 64 64 56 56 56 56 56 48 48 44 36 32 24 20 12 12 8 8 8 8 8 12 12 20 20 20 8 8
8 12 20 36 64 76 76 68 68 68 76 76 80 80 88 88 88 88 88 88 88 80 80 80 76 64 56 48 48 48 48 56 56 56 56 64 64 64 64 64 64 64 56 56 56 48 48 48 48 48 48 48 44 36 32 20 20 20 12 8 8 8 0 0 0 8 8 0 0
20 32 48 76 80 80 76 76 76 76 76 76 80 88 92 92 88 88 88 88 88 80 80 76 64 56 48 48 48 48 48 48 64 64 56 56 56 56 56 56 56 48 44 44 44 44 44 36 36 36 36 44 44 36 36 24 20 20 20 12 12 8 8 0 0 0 0 0 0
36 48 64 68 80 80 80 80 80 80 80 80 88 92 92 92 88 88 88 80 80 80 76 68 64 56 56 56 56 48 48 48 64 56 56 56 48 48 48 48 44 36 36 32 32 32 24 24 24 24 24 24 24 24 20 8 8 8 8 8 8 8 8 0 0 0 0 0 0
48 64 68 76 76 76 80 76 80 88 92 92 92 88 88 88 88 88 80 80 80 76 68 64 64 56 56 56 48 48 48 48 56 48 48 44 48 44 44 36 32 24 24 20 20 20 12 12 12 8 8 8 8 8 8 0 0 0 0 0 0 0 0 0 0 0 0 0 0
68 68 76 80 80 80 80 80 88 88 92 88 88 88 88 88 80 80 80 76 68 68 68 68 64 56 48 44 44 44 44 36 36 36 44 36 36 36 32 24 20 12 12 8 8 8 8 8 8 0 0 0 0 0 0 0 0 0 0 0 0 0 0 0 0 0 0 20 20
88 88 88 92 92 92 88 88 92 92 88 88 88 88 80 80 80 76 76 68 68 68 68 64 56 48 44 36 44 36 32 32 32 32 32 32 32 24 20 12 8 8 0 0 0 8 8 8 0 0 0 0 0 0 0 0 0 0 0 0 0 0 0 0 20 24 36 56 56
92 92 92 88 88 88 92 92 92 88 88 88 88 80 80 80 80 76 68 64 64 64 64 56 48 44 36 48 36 36 32 32 32 32 24 24 20 12 8 8 0 0 0 0 0 0 0 0 0 0 0 0 0 0 0 0 0 0 0 0 0 0 8 24 48 56 56 64 56
92 92 92 80 80 88 92 92 92 92 88 88 88 88 88 80 80 76 68 64 64 64 56 48 44 36 36 44 36 32 32 32 24 24 20 20 12 8 8 0 0 0 0 0 0 0 0 0 0 0 0 0 0 0 0 0 0 0 0 8 36 48 56 76 48 36 44 48 44
92 92 92 88 88 92 92 92 92 92 92 92 92 92 92 88 88 80 76 68 64 64 56 48 44 36 36 44 36 36 32 32 24 24 20 12 8 8 0 0 0 0 0 0 0 0 0 0 0 0 0 0 0 0 0 0 8 20 36 44 80 88 80 64 44 24 12 20 12
88 88 88 92 92 92 92 92 92 92 92 92 92 92 92 92 92 88 76 68 68 64 56 44 36 36 36 36 36 36 32 32 24 24 20 12 8 0 0 0 0 0 0 0 0 0 0 0 0 0 0 0 0 12 32 44 32 32 36 44 36 44 44 12 12 8 0 0 0
88 80 88 92 92 92 92 92 92 92 92 92 92 92 92 88 88 88 80 68 64 56 44 44 36 36 36 36 36 36 32 32 32 24 20 8 8 0 0 0 0 0 0 0 0 0 0 0 0 0 0 0 24 48 68 68 68 48 32 20 20 20 24 64 32 24 24 12 8
88 88 92 92 92 92 92 92 92 92 92 92 92 92 88 88 88 88 80 64 48 48 44 44 36 36 36 36 36 36 32 32 20 12 8 8 0 0 0 0 0 0 0 0 0 0 0 0 0 0 0 0 56 64 48 48 76 68 48 32 32 48 68 88 56 56 64 24 24
92 92 92 92 92 92 92 92 92 92 92 92 92 92 88 88 88 80 68 48 48 44 36 32 32 32 32 32 32 24 20 12 8 0 0 0 0 0 0 0 0 0 0 0 0 0 0 0 0 20 44 44 56 64 64 56 68 76 76 48 68 68 68 88 80 68 56 48 48
92 92 92 92 92 92 92 92 92 92 92 88 88 88 88 88 76 64 56 36 36 36 32 32 32 32 32 32 24 12 8 0 0 0 0 0 0 0 0 0 0 0 0 0 0 0 0 0 0 44 76 64 76 80 80 80 80 80 88 80 88 88 80 88 80 68 64 68 80
92 92 92 92 92 92 92 92 88 80 80 76 76 76 76 68 56 48 44 32 32 32 32 32 32 32 24 20 8 0 0 0 0 0 0 0 0 0 0 0 0 0 0 0 0 0 0 20 56 76 80 56 76 88 88 88 88 88 88 88 88 88 88 88 80 80 80 88 88
92 88 88 88 92 92 92 88 76 68 68 68 68 68 64 56 48 44 36 32 32 32 32 32 32 24 12 8 0 0 0 0 0 0 0 0 0 0 0 0 0 0 0 0 0 8 32 80 88 88 88 88 88 88 88 88 88 88 88 88 88 88 88 88 88 88 88 88 88
80 76 76 80 88 80 80 76 68 64 64 56 56 56 48 48 44 36 36 32 32 32 32 32 20 12 8 0 0 0 0 0 0 0 0 0 0 0 0 0 0 0 0 0 0 44 80 56 48 56 64 48 80 88 88 88 88 88 88 88 88 64 56 88 88 88 88 88 88
64 68 76 80 80 76 68 68 64 56 48 44 44 48 48 48 44 36 32 24 36 36 24 20 8 8 8 8 0 0 0 0 0 0 0 0 0 0 0 0 0 0 0 0 0 24 36 0 8 0 0 0 12 32 56 88 88 88 88 88 80 80 88 88 88 88 88 88 88
68 76 76 80 76 68 64 56 48 44 36 36 44 48 48 48 48 44 36 32 32 20 8 8 8 8 8 8 0 0 0 0 0 0 0 0 0 0 0 0 0 0 0 0 0 0 0 0 0 0 0 0 0 0 8 36 76 88 80 80 80 88 88 88 88 88 80 68 68
80 88 92 92 80 68 56 48 44 36 44 44 48 48 48 56 48 44 36 24 12 8 8 12 12 8 8 8 0 0 0 0 0 0 0 0 0 0 0 0 0 0 0 0 0 0 0 0 0 0 0 0 0 8 24 44 56 68 80 88 88 88 88 92 88 88 80 76 88
80 88 92 92 88 80 68 64 48 48 56 64 64 68 68 64 48 36 24 20 12 12 12 8 8 0 0 0 0 0 0 0 0 0 0 0 0 0 0 0 0 0 0 0 0 0 0 0 0 0 8 12 64 56 44 48 76 88 80 88 88 92 88 88 88 88 88 80 88
76 76 76 68 56 64 68 76 76 76 76 68 68 64 56 48 36 32 24 20 12 8 8 0 0 0 0 0 0 0 0 0 0 0 0 0 0 0 0 0 0 0 0 0 0 0 0 0 8 32 56 68 56 68 80 68 80 80 88 88 88 92 92 88 88 88 88 88 88
56 56 56 48 44 36 44 48 64 64 56 48 48 48 44 36 36 32 24 20 12 8 0 0 0 0 0 0 0 0 0 0 0 0 0 0 0 0 0 0 0 0 0 0 0 0 0 0 64 64 44 44 76 80 76 88 76 80 88 88 92 88 88 88 88 88 88 88 88
68 76 68 64 36 24 12 12 36 44 44 44 44 44 44 44 36 32 24 20 12 8 0 0 0 0 0 0 0 0 0 0 0 0 0 0 0 0 0 0 0 0 0 0 0 0 0 0 36 36 32 88 88 88 88 88 88 88 92 92 88 88 88 88 88 88 88 88 92
88 88 68 24 12 8 12 32 44 44 44 48 48 44 44 36 32 32 24 20 12 0 0 0 0 0 0 0 0 0 0 0 0 0 0 0 0 0 0 0 0 0 0 0 0 0 0 0 0 0 20 88 88 88 88 88 88 88 88 88 88 80 76 76 80 88 88 88 88
80 64 36 12 0 0 12 64 48 48 48 56 48 48 44 36 36 32 24 12 12 0 0 0 0 0 0 0 0 0 0 0 0 0 0 0 0 0 0 0 0 0 0 0 0 0 0 0 0 0 20 80 88 88 88 88 88 88 88 88 88 80 76 80 80 88 88 88 88
48 32 12 0 0 8 24 56 56 64 68 64 56 48 44 44 36 32 24 20 12 0 0 0 0 0 0 0 0 0 0 0 0 0 0 0 0 0 0 0 0 0 0 0 0 0 0 0 0 0 20 80 88 88 88 88 80 88 88 88 80 80 88 88 88 88 80 64 68
32 20 8 8 12 36 64 64 76 80 80 68 56 48 44 44 36 24 20 20 8 0 0 0 0 0 0 0 0 0 0 0 0 0 0 0 0 0 0 0 0 0 0 0 0 0 0 0 0 0 12 64 76 80 80 88 88 88 88 88 88 88 88 88 88 76 48 24 24
20 20 24 20 32 56 80 80 88 88 80 68 64 56 44 36 32 24 20 12 0 0 0 0 0 0 0 0 0 0 0 0 0 0 0 0 0 0 0 0 0 0 0 0 0 0 0 0 0 8 24 64 80 88 88 88 88 88 88 88 88 88 88 76 68 48 32 44 32
20 24 36 36 44 64 80 92 92 80 76 68 64 56 44 36 32 20 12 0 0 0 0 0 0 0 0 0 0 0 0 0 0 0 0 0 0 0 0 0 20 24 20 0 0 0 0 8 12 32 56 88 88 92 88 88 88 88 88 88 88 88 76 48 36 44 56 64 44